Regional Weather Roundup
Issued by NWS

Home | Current Version | Previous Version | Text Only | Print | Product List | Glossary On
Versions: 1 2 3 4 5 6 7 8 9 10 11 12 13 14 15 16 17 18 19 20 21 22 23 24 25 26 27 28 29 30 31 32 33 34 35 36 37 38 39 40 41 42 43 44 45 46 47 48 49 50
000
ASUS43 KMPX 200010
RWRMN
WEATHER ROUNDUP FOR MINNESOTA
NATIONAL WEATHER SERVICE TWIN CITIES/CHANHASSEN MN
700 PM CDT SUN APR 19 2015


NOTE: "FAIR" INDICATES FEW OR NO CLOUDS BELOW 12,000 FEET WITH NO
SIGNIFICANT WEATHER AND/OR OBSTRUCTIONS TO VISIBILITY. N/A MEANS
CURRENT SKY AND/OR WEATHER CONDITIONS ARE NOT AVAILABLE.

MNZ060>063-068>070-200100-
   Twin Cities Metro

CITY           SKY/WX    TMP DP  RH WIND       PRES   REMARKS
TWIN CITIES    LGT RAIN  49  45  86 W13       29.61R
6HR MIN TEMP:  49; 6HR MAX TEMP:  60; 6HR PCP:  0.01;

ST PAUL        LGT RAIN  50  45  83 NW20      29.61R
CRYSTAL        LGT RAIN  50  44  80 NW10      29.60S
BLAINE         LGT RAIN  52  48  87 NW14      29.60
LAKEVILLE      LGT RAIN  46  45  93 NW15G22   29.60S
EDEN PRAIRIE   LGT RAIN  49  44  83 NW10      29.61R
6HR MIN TEMP:  49; 6HR MAX TEMP:  59; 6HR PCP:  0.03;

SOUTH ST PAUL  LGT RAIN  51  45  80 NW15G21   29.59S
LAKE ELMO      RAIN      50  46  87 NW15      29.60R
$$
MNZ001>005-007-008-013>017-022>024-027-028-200100-
   Northwest Minnesota

CITY           SKY/WX    TMP DP  RH WIND       PRES   REMARKS
BEMIDJI        CLOUDY    39  37  93 NW17G23   29.65R
HALLOCK        CLOUDY    41  34  75 N22G32    29.72R
ROSEAU         DRIZZLE   39  36  87 NW12      29.65R
WARROAD        RAIN      39  36  87 NW15G21   29.64R
THIEF RVR FALL CLOUDY    39  36  87 NW23G31   29.69S
CROOKSTON      MOSUNNY   41  39  93 N28       29.72S
FOSSTON        CLOUDY    37  36  93 NW14G23   29.69R
DETROIT LAKES  CLOUDY    41  37  87 NW17G25   29.70S
MOORHEAD       PTSUNNY   46  39  76 N21       29.73R
PARK RAPIDS    CLOUDY    43  37  79 NW20G26   29.65R
MAHNOMEN       CLOUDY    40  37  90 NW21G28   29.70R
$$
MNZ006-009>011-018-025>026-200100-
   North Central Minnesota

CITY           SKY/WX    TMP DP  RH WIND       PRES   REMARKS
BAUDETTE       CLOUDY    39  36  89 NW12      29.61R
FLAG ISLAND    CLOUDY    37  36  93 NW15      29.60R
INTL FALLS     LGT RAIN  43  41  93 CALM      29.56R
6HR MIN TEMP:  42; 6HR MAX TEMP:  45; 6HR PCP:  0.01;

WASKISH        LGT RAIN  39  37  93 NW16G24   29.62R
BIG FORK       RAIN      45  43  93 W7        29.57S
LONGVILLE      CLOUDY    45  39  81 W8        29.61R
GRAND RAPIDS   CLOUDY    45  39  81 NW16G22   29.58S
ORR            CLOUDY    43  39  87 CALM      29.54S
COOK           CLOUDY    45  43  93 W3        29.56F
WALKER         CLOUDY    40  37  87 W10G16    29.63R
$$
MNZ012-019>021-037-200100-
   Northeast Minnesota

CITY           SKY/WX    TMP DP  RH WIND       PRES   REMARKS
DULUTH         DRZL/FOG  38  37  97 S5        29.57S VSB 1/2
6HR MIN TEMP:  38; 6HR MAX TEMP:  40; 6HR PCP:  0.03;

ELY            CLOUDY    41  39  93 CALM      29.56F FOG
HIBBING        CLOUDY    45  41  86 NW5       29.56F
EVELETH        DRIZZLE   43  43 100 W3        29.57F
DULUTH HARBOR  CLOUDY    37  36  93 E14       29.60F
TWO HARBORS    CLOUDY    43  37  81 CALM      29.56S HAZE
SILVER BAY     CLOUDY    39  37  93 N3        29.56S FOG
GRAND MARAIS     N/A     38  36  92 E6        29.58F
G MARAIS ARPRT CLOUDY    37  36  93 E5        29.56F FOG
$$
MNZ029>031-032-039>041-046>048-054>057-064-200100-
   West Central Minnesota

CITY           SKY/WX    TMP DP  RH WIND       PRES   REMARKS
FERGUS FALLS   CLOUDY    43  37  81 N18G31    29.73R
WHEATON        PTSUNNY   45  36  70 NW21G28   29.76R
MORRIS         PTSUNNY   46  39  76 NW25G33   29.70R
ALEXANDRIA     CLOUDY    45  38  76 NW21G29   29.68S
ELBOW LAKE     CLOUDY    44  38  81 N20G31    29.71R
WADENA         CLOUDY    39  36  87 NW18G26   29.67R
GLENWOOD       CLOUDY    45  39  81 NW17      29.68R
APPLETON       PTSUNNY   50  37  62 NW26      29.71R
BENSON         PTSUNNY   48  39  71 N20G26    29.70R
ORTONVILLE     MOSUNNY   48  37  66 N21G30    29.72R
MADISON        PTSUNNY   52  37  58 N26G35    29.72R
WILLMAR        FAIR      48  41  76 NW24G31   29.68S
$$
MNZ033>034-036-042>043-049>051-058-059-200100-
   Central Minnesota

CITY           SKY/WX    TMP DP  RH WIND       PRES   REMARKS
ST CLOUD       CLOUDY    48  40  73 NW15      29.63R
6HR MIN TEMP:  48; 6HR MAX TEMP:  54;

SAUK CENTRE    CLOUDY    46  39  78 NW17      29.65S
PAYNESVILLE    CLOUDY    45  39  81 W15G25    29.66R
AITKIN         CLOUDY    48  43  81 W8        29.58S
PINE RIVER     CLOUDY    45  39  81 W14G21    29.66R
BRAINERD       CLOUDY    47  40  76 W15G22    29.61S
STAPLES        CLOUDY    43  37  81 NW16G25   29.64S
LONG PRAIRIE   CLOUDY    43  39  87 W13G21    29.66R
LITTLE FALLS   CLOUDY    46  37  71 NW13G21   29.64R
LITCHFIELD     CLOUDY    48  43  81 NW14G24   29.66S
BUFFALO        CLOUDY    49  39  67 W16G23    29.63S
MAPLE LAKE     CLOUDY    49  42  76 W14       29.64S
$$
MNZ037-044-045-052-053-200100-
   East Central Minnesota

CITY           SKY/WX    TMP DP  RH WIND       PRES   REMARKS
PRINCETON      CLOUDY    50  43  76 W15G23    29.61S
MORA           CLOUDY    48  41  76 NW10      29.60F
CAMBRIDGE      LGT RAIN  52  41  66 W8        29.58S
RUSH CITY      DRIZZLE   49  46  87 NW3       29.59S
MOOSE LAKE     CLOUDY    43  41  93 CALM      29.57S
HINCKLEY       LGT RAIN  50  45  81 NW6       29.59R
CLOQUET        FOG       37  37 100 CALM      29.58S VSB 1
MCGREGOR       CLOUDY    45  43  93 NW8       29.59R
$$
MNZ071>073-080-081-089-090-097-098-200100-
   Southwest Minnesota

CITY           SKY/WX    TMP DP  RH WIND       PRES   REMARKS
MONTEVIDEO     PTSUNNY   48  41  76 N21G30    29.71R
GRANITE FALLS  CLOUDY    49  39  68 NW15G21   29.71R
CANBY          CLOUDY    51  37  57 NW21      29.73R
MARSHALL       CLOUDY    50  34  53 N21G30    29.69S
REDWOOD FALLS  CLOUDY    51  38  60 NW17G31   29.67S
OLIVIA         PTSUNNY   46  37  71 N18G25    29.67R
PIPESTONE      CLOUDY    52  34  50 N23G29    29.71S
WINDOM         CLOUDY    50  39  66 NW14G21   29.67F
WORTHINGTON    CLOUDY    50  34  53 NW16      29.69S
JACKSON        CLOUDY    50  37  62 NW14      29.67F
TRACY          CLOUDY    51  40  66 N20       29.69S
SLAYTON        CLOUDY    50  37  62 NW13G23   29.70R
$$
MNZ065>067-074>077-082>085-091>093-200100-
   South Central Minnesota

CITY           SKY/WX    TMP DP  RH WIND       PRES   REMARKS
MANKATO        CLOUDY    48  37  66 NW17G24   29.64S
NEW ULM        CLOUDY    50  39  66 N15G22    29.65S
ST JAMES       CLOUDY    52  39  62 NW15G24   29.67S
FAIRMONT       CLOUDY    48  34  57 NW14      29.64F
GLENCOE        CLOUDY    50  42  75 NW13G23   29.64S
FARIBAULT      RAIN      48  45  87 NW14G22   29.62S
OWATONNA       DRIZZLE   48  45  87 NW20G26   29.61S
ALBERT LEA     LGT RAIN  46  46 100 NW15G26   29.62R
$$
MNZ078>079-086>088-094>096-200100-
   Southeast Minnesota

CITY           SKY/WX    TMP DP  RH WIND       PRES   REMARKS
ROCHESTER      RAIN      50  48  93 NW18G30   29.56F FOG
6HR MIN TEMP:  50; 6HR MAX TEMP:  62; 6HR PCP:  0.66;

RED WING       LGT RAIN  52  50  93 NW8       29.56S
STANTON        DRIZZLE   50  46  83 W16       29.58S
DODGE CENTER   LGT RAIN  50  46  87 NW16G25   29.57F
WINONA         DRIZZLE   54  50  87 CALM      29.52S
AUSTIN         DRIZZLE   48  45  87 NW18G25   29.58R
PRESTON        LGT RAIN  50  48  92 N14G24    29.54S
$$
ABBREVIATIONS USED IN REMARKS
   TC - TEMPERATURES IN CELSIUS
  WCI - WIND CHILL INDEX
   HX - HEAT INDEX
  VSB - VISIBILITY
$$


USA.gov is the U.S. government's official web portal to all federal, state and local government web resources and services.